Regional Weather Roundup
Issued by NWS

Home | Current Version | Previous Version | Text Only | Print | Product List | Glossary Off
Versions: 1 2 3 4 5 6 7 8 9 10 11 12 13 14 15 16 17 18 19 20 21 22 23 24 25 26 27 28 29 30 31 32 33 34 35 36 37 38 39 40 41 42 43 44 45 46 47 48 49 50

000
ASUS43 KFSD 051102
RWRSD

WEATHER ROUNDUP FOR SOUTH DAKOTA
NATIONAL WEATHER SERVICE SIOUX FALLS SD
600 AM CDT TUE MAY 05 2015

NOTE: "FAIR" INDICATES FEW OR NO CLOUDS BELOW 12,000 FEET WITH NO
SIGNIFICANT WEATHER AND/OR OBSTRUCTIONS TO VISIBILITY.


SDZ001>005-009-010-012>017-051200-
NORTHWEST AND NORTH CENTRAL SOUTH DAKOTA

CITY           SKY/WX    TMP DP  RH WIND       PRES   REMARKS
BUFFALO          N/A     42  28  57 SE13      29.91F
FAITH            N/A     47  30  51 S12       30.02F
MOBRIDGE       MOCLDY    54  33  45 SE14      30.05F
$$

SDZ012>016-024>037-041>051-057-063-072>074-051200-
SOUTHWEST AND SOUTH CENTRAL SOUTH DAKOTA

CITY           SKY/WX    TMP DP  RH WIND       PRES   REMARKS
RAPID CTY ARPT CLEAR     40  34  79 SE6       30.02S
PIERRE         MOCLDY    50  35  56 E9        30.06F
CUSTER         CLOUDY    43  35  73 S3        30.05F
ELLSWORTH AFB  CLEAR     44  34  68 S10       30.00F
PHILIP         PTCLDY    38  25  59 CALM      30.05S
PINE RIDGE     PTCLDY    41  35  79 NE3       30.03F
WINNER         CLOUDY    52  41  66 SE8       30.08R
$$

SDZ004>011-016>023-039-040-051200-
NORTHEAST SOUTH DAKOTA

CITY           SKY/WX    TMP DP  RH WIND       PRES   REMARKS
ABERDEEN       MOCLDY    49  32  52 SE6       30.14S
WATERTOWN      CLEAR     51  26  37 E8        30.15F
BROOKINGS      CLEAR     46  30  53 E6        30.15S
SISSETON         N/A     35  27  72 CALM      30.17S
$$

SDZ017-020-022-023-036>040-048>070-051200-
SOUTHEAST SOUTH DAKOTA

CITY           SKY/WX    TMP DP  RH WIND       PRES   REMARKS
SIOUX FALLS    MOCLDY    45  34  65 N3        30.11F
HURON          PTCLDY    44  31  60 E6        30.12F
MITCHELL       MOCLDY    46  33  60 E5        30.11F
YANKTON        CLOUDY    55  37  50 E6        30.09S
$$

ABBREVIATIONS USED IN REMARKS
   TC - TEMPERATURE IN CELSIUS
  WCI - WIND CHILL INDEX
   HX - HEAT INDEX
  VSB - VISIBILITY



USA.gov is the U.S. government's official web portal to all federal, state and local government web resources and services.